Weather reports worldwide

Advertisment
Bolzano, Italy (16020): temperature & dewpoint: 10.11.2018 05:00:00 - 16.11.2018 05:00:00 (CET)Bolzano, Italy (16020): wind speed: 10.11.2018 05:00:00 - 16.11.2018 05:00:00 (CET)Bolzano, Italy (16020): wind direction: 10.11.2018 05:00:00 - 16.11.2018 05:00:00 (CET)Bolzano, Italy (16020): reduced air pressure: 10.11.2018 05:00:00 - 16.11.2018 05:00:00 (CET)Bolzano, Italy (16020): visibility: 10.11.2018 05:00:00 - 16.11.2018 05:00:00 (CET)Bolzano, Italy (16020): precipitation: 10.11.2018 05:00:00 - 16.11.2018 05:00:00 (CET)
Date & Time tt [°C] td [°C] ff [km/h] ff [kn] dd ppp [hPa] vv [km] rr [mm]
16.11.2018 05:00:00 - - - - - - - -
16.11.2018 04:00:00 1,4 1,1 2 1 NW 1028,0 - -
16.11.2018 03:00:00 - - - - - - - -
16.11.2018 02:00:00 - - - - - - - -
16.11.2018 01:00:00 3,5 3,1 2 1 ENE 1027,0 - 0,0
16.11.2018 00:00:00 - - - - - - - -
15.11.2018 23:00:00 - - - - - - - -
15.11.2018 22:00:00 3,7 3,0 0 0 N 1026,7 10 -
15.11.2018 21:00:00 6,0 5,0 0 0 N - 10 -
15.11.2018 20:00:00 5,0 4,0 0 0 N - 10 -
15.11.2018 19:00:00 6,2 4,8 0 0 N 1026,1 10 0,0
15.11.2018 18:00:00 9,0 5,0 8 4 NNE - 10 -
15.11.2018 17:00:00 10,0 6,0 0 0 N - 10 -
15.11.2018 16:00:00 11,8 6,1 4 2 WSW 1024,8 10 -
15.11.2018 15:00:00 14,0 6,0 5 3 - - 10 -
15.11.2018 14:00:00 13,0 6,0 5 3 SW - 10 -
15.11.2018 13:00:00 13,0 5,9 0 0 N 1025,6 10 0,0
15.11.2018 12:00:00 11,0 5,0 0 0 N - 10 -
15.11.2018 11:00:00 10,0 5,0 0 0 N - 10 -
15.11.2018 10:00:00 8,7 5,1 0 0 N 1028,9 10 -
15.11.2018 09:00:00 3,0 3,0 0 0 N - 10 -
15.11.2018 08:00:00 3,0 3,0 4 2 E - 10 -
15.11.2018 07:00:00 2,5 2,3 2 1 N 1029,7 15 0,0
15.11.2018 06:00:00 - - - - - - - -
15.11.2018 05:00:00 - - - - - - - -
15.11.2018 04:00:00 3,2 2,9 2 1 WNW 1029,7 - -
15.11.2018 03:00:00 - - - - - - - -
15.11.2018 02:00:00 - - - - - - - -
15.11.2018 01:00:00 5,2 5,0 2 1 N 1029,8 - 0,0
15.11.2018 00:00:00 - - - - - - - -
14.11.2018 23:00:00 6,0 6,0 4 2 - - 10 -
14.11.2018 22:00:00 6,3 5,5 4 2 - 1029,5 10 -
14.11.2018 21:00:00 7,0 6,0 0 0 N - 10 -
14.11.2018 20:00:00 7,0 7,0 4 2 - - 10 -
14.11.2018 19:00:00 8,1 6,8 0 0 N 1028,6 10 0,0
14.11.2018 18:00:00 9,0 7,0 0 0 N - 10 -
14.11.2018 17:00:00 10,0 8,0 0 0 N - 10 -
14.11.2018 16:00:00 12,9 8,2 4 2 WSW 1027,2 10 -
14.11.2018 15:00:00 16,0 8,0 5 3 WSW - 10 -
14.11.2018 14:00:00 16,0 8,0 2 1 - - 10 -
14.11.2018 13:00:00 15,9 8,0 5 3 - 1028,6 10 0,0
14.11.2018 12:00:00 14,0 8,0 5 3 - - 10 -
14.11.2018 11:00:00 13,0 8,0 5 3 - - 10 -
14.11.2018 10:00:00 11,0 8,5 5 3 - 1031,6 10 -
14.11.2018 09:00:00 6,0 5,0 5 3 SW - 10 -
14.11.2018 08:00:00 6,0 5,0 4 2 - - 10 -
14.11.2018 07:00:00 3,6 3,3 5 3 - 1031,9 10 0,0
14.11.2018 06:00:00 - - - - - - - -
14.11.2018 05:00:00 - - - - - - - -
14.11.2018 04:00:00 5,3 5,1 2 1 N 1031,1 - -
14.11.2018 03:00:00 - - - - - - - -
14.11.2018 02:00:00 - - - - - - - -
14.11.2018 01:00:00 5,2 4,8 4 2 SSE 1030,9 - 0,0
14.11.2018 00:00:00 - - - - - - - -
13.11.2018 23:00:00 9,0 8,0 4 2 - - 10 -
13.11.2018 22:00:00 8,0 7,3 4 2 - 1029,8 10 -
13.11.2018 21:00:00 10,0 9,0 5 3 - - 10 -
13.11.2018 20:00:00 11,0 10,0 4 2 NE - 10 -
13.11.2018 19:00:00 10,1 8,9 2 1 SSE 1028,4 40 0,0
13.11.2018 18:00:00 12,0 10,0 2 1 SSE - 10 -
13.11.2018 17:00:00 14,0 10,0 4 2 ENE - 10 -
13.11.2018 16:00:00 14,8 11,1 4 2 W 1026,2 10 -
13.11.2018 15:00:00 17,0 10,0 0 0 N - 10 -
13.11.2018 14:00:00 17,0 10,0 4 2 - - 10 -
13.11.2018 13:00:00 16,3 9,7 2 1 - 1026,8 10 0,0
13.11.2018 12:00:00 15,0 10,0 2 1 - - 10 -
13.11.2018 11:00:00 14,0 9,0 2 1 - - 10 -
13.11.2018 10:00:00 13,4 8,7 4 2 - 1028,6 10 -
13.11.2018 09:00:00 13,0 9,0 4 2 - - 10 -
13.11.2018 08:00:00 12,0 10,0 4 2 - - 10 -
13.11.2018 07:00:00 12,2 10,0 4 2 - 1027,6 10 0,0
13.11.2018 06:00:00 - - - - - - - -
13.11.2018 05:00:00 - - - - - - - -
13.11.2018 04:00:00 11,9 11,1 2 1 ESE 1027,1 - -
13.11.2018 03:00:00 - - - - - - - -
13.11.2018 02:00:00 - - - - - - - -
13.11.2018 01:00:00 11,7 10,9 2 1 WNW 1027,5 - 0,0
13.11.2018 00:00:00 - - - - - - - -
12.11.2018 23:00:00 12,0 11,0 0 0 N - 10 -
12.11.2018 22:00:00 12,6 11,4 2 1 - 1027,3 10 -
12.11.2018 21:00:00 13,0 11,0 0 0 N - 10 -
12.11.2018 20:00:00 13,0 11,0 0 0 N - 10 -
12.11.2018 19:00:00 13,1 11,1 0 0 N 1026,5 20 0,0
12.11.2018 18:00:00 12,0 11,0 0 0 N - 10 -
12.11.2018 17:00:00 15,0 10,0 2 1 - - 10 -
12.11.2018 16:00:00 15,7 10,8 4 2 - 1025,0 10 -
12.11.2018 15:00:00 19,0 9,0 4 2 - - 10 -
12.11.2018 14:00:00 19,0 9,0 4 2 - - 10 -
12.11.2018 13:00:00 18,6 9,5 4 2 - 1025,3 10 0,0
12.11.2018 12:00:00 18,0 10,0 4 2 - - 10 -
12.11.2018 11:00:00 16,0 11,0 4 2 - - 10 -
12.11.2018 10:00:00 15,4 11,1 4 2 - 1026,8 9 -
12.11.2018 09:00:00 12,0 12,0 0 0 N - 9 -
12.11.2018 08:00:00 11,0 11,0 4 2 - - 8 -
12.11.2018 07:00:00 10,9 10,7 2 1 W 1026,2 8 0,0
12.11.2018 06:00:00 - - - - - - - -
12.11.2018 05:00:00 - - - - - - - -
12.11.2018 04:00:00 10,2 10,1 4 2 SSE 1025,4 - -
12.11.2018 03:00:00 - - - - - - - -
12.11.2018 02:00:00 - - - - - - - -
12.11.2018 01:00:00 11,8 11,4 0 0 N 1024,8 - 0,0
12.11.2018 00:00:00 - - - - - - - -
11.11.2018 23:00:00 12,0 12,0 0 0 N - 10 -
11.11.2018 22:00:00 12,1 11,5 2 1 - 1024,2 10 -
11.11.2018 21:00:00 12,0 12,0 2 1 - - 9 -
11.11.2018 20:00:00 12,0 11,0 2 1 WSW - 9 -
11.11.2018 19:00:00 12,6 11,6 0 0 N 1023,1 9 0,0
11.11.2018 18:00:00 13,0 12,0 2 1 - - 9 -
11.11.2018 17:00:00 14,0 11,0 2 1 SSE - 9 -
11.11.2018 16:00:00 14,0 11,3 0 0 N 1021,3 9 -
11.11.2018 15:00:00 14,0 11,0 0 0 N - 10 -
11.11.2018 14:00:00 14,0 11,0 2 1 - - 10 -
11.11.2018 13:00:00 14,2 11,3 4 2 - 1020,7 9 0,0
11.11.2018 12:00:00 14,0 11,0 4 2 - - 9 -
11.11.2018 11:00:00 13,0 12,0 2 1 - - 9 -
11.11.2018 10:00:00 12,2 11,5 0 0 N 1020,0 9 -
11.11.2018 09:00:00 12,0 11,0 0 0 N - 9 -
11.11.2018 08:00:00 12,0 11,0 2 1 - - 9 -
11.11.2018 07:00:00 11,6 11,2 2 1 E 1018,1 9 0,0
11.11.2018 06:00:00 - - - - - - - -
11.11.2018 05:00:00 - - - - - - - -
11.11.2018 04:00:00 11,7 11,1 2 1 ESE 1016,7 - -
11.11.2018 03:00:00 - - - - - - - -
11.11.2018 02:00:00 - - - - - - - -
11.11.2018 01:00:00 11,8 11,1 4 2 SSE 1016,7 - 0,0
11.11.2018 00:00:00 - - - - - - - -
10.11.2018 23:00:00 12,0 11,0 0 0 N - 10 -
10.11.2018 22:00:00 12,3 11,2 2 1 NE 1016,7 12 -
10.11.2018 21:00:00 12,0 11,0 0 0 N - 10 -
10.11.2018 20:00:00 12,0 11,0 0 0 N - 10 -
10.11.2018 19:00:00 12,2 11,1 4 2 S 1016,1 12 0,0
10.11.2018 18:00:00 13,0 11,0 4 2 - - 10 -
10.11.2018 17:00:00 14,0 11,0 0 0 N - 10 -
10.11.2018 16:00:00 14,4 10,2 4 2 - 1015,1 10 -
10.11.2018 15:00:00 15,0 10,0 5 3 - - 10 -
10.11.2018 14:00:00 16,0 10,0 2 1 - - 10 -
10.11.2018 13:00:00 15,3 10,1 4 2 - 1015,7 9 0,0
10.11.2018 12:00:00 13,0 11,0 2 1 - - 9 -
10.11.2018 11:00:00 12,0 11,0 5 3 - - 9 -
10.11.2018 10:00:00 11,9 11,1 2 1 - 1017,7 10 -
10.11.2018 09:00:00 10,0 10,0 2 1 - - 8 -
10.11.2018 08:00:00 8,0 8,0 2 1 - - 7 -
10.11.2018 07:00:00 9,2 9,2 2 1 - 1017,8 7 0,0
10.11.2018 06:00:00 - - - - - - - -
10.11.2018 05:00:00 - - - - - - - -

tt = temperature
td = dewpoint
ff = wind speed
dd = wind direction
ppp = reduced air pressure
vv = visibility
rr = precipitation

Next stations